Theta_e
339 339 340 340 339 339 340 340 340 340 340 340 340 340 339 339 339 339 339 339 339 339 339 339 339 339 339 340 340 340 340 340 340 340 341 341 341 340 340 340 339 338 338 338 337 336 334 328 322 318 319 319 319 320 320 324 324 323 321 322 322 320 319 330 339 343 342 342 342 343 343 342 342 342 342 342 342 342 343 343 343 343 343 342 342 342 341 340 340 339 339 340 341 342 342 343 343 343 343 342 342 343 343
339 339 339 339 339 339 339 340 340 340 340 340 340 340 339 339 339 339 339 339 339 339 339 339 339 339 340 341 341 341 340 340 340 341 341 341 340 340 339 339 338 338 337 337 336 334 332 326 321 319 321 321 320 320 321 323 323 323 321 322 321 321 322 335 341 342 341 342 343 344 344 343 342 341 342 342 343 343 343 344 343 343 343 343 343 342 342 342 341 341 341 342 342 342 343 343 343 343 342 342 342 342 343
338 338 338 339 339 339 339 339 339 339 339 339 340 339 339 339 339 339 339 339 339 339 339 339 340 340 341 341 341 341 341 341 341 341 341 341 340 339 339 339 338 337 337 337 335 333 332 328 324 322 322 322 322 322 323 324 323 322 320 322 322 323 326 336 340 341 340 343 344 345 344 343 342 341 342 343 343 343 342 342 341 342 343 342 342 342 343 342 343 342 342 343 343 343 343 343 343 342 342 342 342 343 343
338 338 338 339 339 339 339 339 339 339 339 339 339 339 338 339 339 339 339 339 339 339 339 340 340 341 341 341 341 341 341 341 341 341 340 340 339 339 339 338 337 337 336 336 335 333 330 330 327 326 324 323 323 323 324 325 324 322 319 320 322 325 332 338 340 339 340 342 344 344 344 343 342 342 342 342 343 342 342 340 339 340 340 341 341 342 342 343 343 343 342 342 342 343 343 342 341 341 341 342 342 342 342
338 339 339 339 339 339 339 339 339 339 339 339 339 338 338 339 339 339 339 339 339 340 340 341 341 341 341 341 341 340 340 340 340 340 339 339 339 338 338 337 337 336 336 335 334 333 330 330 329 327 325 324 323 324 324 326 325 323 320 319 322 328 335 338 339 339 339 341 342 343 343 342 341 342 342 342 343 342 342 341 340 339 340 341 341 341 341 341 341 341 342 342 342 342 342 343 342 341 341 341 342 341 341
339 339 340 340 340 339 339 339 339 339 339 339 338 338 338 339 339 340 340 340 340 340 341 341 341 342 341 341 340 340 340 340 340 339 338 338 338 337 338 337 336 336 335 334 334 331 327 324 324 324 322 323 324 325 324 325 324 321 318 317 323 332 336 337 337 338 339 339 340 340 341 341 341 340 340 341 342 342 342 340 340 340 340 341 340 340 340 340 340 341 341 341 342 343 343 343 342 342 341 340 340 340 341
339 340 340 340 340 340 339 339 339 339 339 339 339 339 339 339 339 340 340 340 340 341 341 341 342 342 341 341 340 340 340 339 339 338 337 336 337 337 337 336 336 336 335 334 332 329 325 320 319 320 318 319 321 322 322 323 323 320 317 317 326 335 336 336 336 337 337 338 338 339 339 339 339 338 338 338 338 338 339 339 339 339 340 340 341 342 342 342 342 342 342 342 342 342 342 341 342 341 340 340 339 339 339
340 340 340 340 340 340 339 339 339 339 339 339 339 340 340 340 340 340 340 341 341 341 341 341 342 341 341 340 340 340 340 338 337 337 336 336 335 336 337 336 336 335 334 333 331 329 326 320 319 318 316 316 317 318 318 318 318 317 317 318 326 334 335 335 335 336 337 337 338 338 338 338 338 337 337 337 337 337 337 338 338 338 339 340 342 342 342 342 342 342 341 341 340 340 340 340 340 339 339 338 338 338 338
340 340 340 340 340 340 340 339 339 339 339 339 340 340 340 340 340 340 341 341 341 341 341 341 341 341 341 340 340 339 339 337 336 334 334 334 335 336 336 336 336 335 334 333 331 329 327 321 318 316 315 315 317 319 319 317 315 315 315 319 326 333 335 334 335 335 337 336 337 337 337 337 337 336 336 336 336 336 337 337 337 338 338 340 341 341 341 340 339 339 339 338 338 338 338 338 337 337 336 337 336 336 336
339 340 339 339 339 339 340 339 339 339 339 340 340 340 340 340 341 341 341 341 341 341 341 341 341 341 341 340 339 338 337 335 334 334 333 333 334 335 336 335 335 334 333 331 330 329 326 320 315 314 314 314 317 319 320 316 315 315 315 322 329 334 335 335 335 336 336 337 337 337 337 336 336 336 336 336 336 336 337 337 337 338 338 338 339 338 338 337 336 335 336 335 335 335 335 335 335 334 335 335 335 335 335
339 339 339 339 340 340 340 339 339 339 339 339 340 340 341 341 341 341 341 341 341 341 341 341 341 341 340 339 338 337 335 334 333 333 332 333 333 334 336 334 334 333 331 330 329 328 325 319 315 313 314 314 317 319 316 316 316 317 317 324 331 335 334 335 335 336 337 337 337 337 336 336 336 335 335 335 336 336 336 337 337 337 337 337 337 336 336 335 335 334 334 334 334 334 334 333 333 333 333 333 334 333 333
339 339 340 340 340 340 340 340 339 339 340 340 341 341 341 341 341 341 341 341 341 341 341 341 340 340 339 338 336 334 333 332 332 332 332 333 334 335 335 334 333 331 330 329 327 326 322 317 314 313 313 314 315 316 315 315 314 314 315 328 333 334 335 335 336 336 337 337 337 336 336 335 335 334 335 335 335 336 336 336 336 336 336 336 335 334 334 334 334 333 333 333 333 333 332 332 332 332 332 332 332 332 332
340 340 341 341 341 341 341 340 340 340 341 341 341 341 341 341 341 341 341 341 341 341 341 340 340 340 338 337 335 333 332 331 332 332 333 334 335 335 334 333 331 330 329 327 325 322 318 315 314 313 314 315 314 314 317 316 315 316 320 331 334 335 335 336 336 336 337 336 336 336 335 335 334 334 334 334 334 335 335 335 335 335 335 334 334 334 334 334 334 333 332 332 332 332 332 332 331 331 331 331 331 331 331
341 341 341 341 342 342 342 341 341 341 341 341 341 341 341 341 341 341 341 341 341 341 340 340 340 338 336 334 332 331 331 330 331 332 333 334 334 333 332 331 330 328 326 324 321 317 316 314 314 314 313 314 314 316 321 319 317 319 328 333 335 335 335 336 336 336 336 336 336 335 335 335 334 334 334 334 335 335 335 334 334 334 334 333 333 333 333 333 333 333 332 332 332 331 331 331 331 331 331 331 330 330 330
339 338 338 341 341 342 342 342 341 341 341 341 341 341 341 341 341 341 341 340 340 340 340 340 338 336 333 331 330 328 329 329 331 332 333 333 333 332 330 329 327 326 324 319 315 314 314 312 313 314 314 314 314 315 319 318 318 322 333 333 335 335 335 336 336 336 336 335 335 335 335 334 334 334 334 335 335 335 334 334 334 334 333 333 333 333 333 333 332 333 332 332 331 331 330 330 330 330 329 329 329 329 329
334 335 336 339 341 341 342 341 341 341 341 341 341 341 342 342 341 340 340 340 340 340 340 339 336 333 330 327 326 325 325 328 330 331 332 332 331 329 328 326 325 322 320 315 313 311 311 312 312 314 315 313 314 315 318 317 321 327 333 333 333 334 334 335 335 335 335 335 335 334 334 334 334 334 334 334 335 335 334 334 333 333 332 332 332 331 331 331 332 331 331 331 331 330 329 329 329 329 329 329 328 328 328
331 332 336 339 340 341 341 342 341 341 341 340 341 342 342 341 341 341 340 340 340 340 339 337 334 330 326 324 321 319 315 318 323 327 330 330 329 327 326 324 321 318 314 312 310 309 309 311 312 313 313 312 314 315 318 317 323 331 333 332 333 333 334 334 334 335 334 334 334 334 334 333 333 334 333 333 333 333 333 333 333 332 331 331 331 330 330 330 330 330 330 330 329 329 329 329 328 328 328 327 327 327 327
331 333 338 339 339 340 341 341 341 341 341 341 341 342 342 342 341 341 340 340 340 339 338 334 331 327 323 320 315 310 304 306 310 315 322 325 326 324 322 320 316 312 310 310 309 308 309 310 312 313 313 312 313 315 318 318 324 331 332 332 331 332 332 333 333 334 334 334 334 333 333 333 332 333 332 332 332 332 331 331 331 331 330 330 329 329 329 329 328 328 328 328 328 328 328 327 327 327 327 327 327 327 327
332 335 337 338 338 339 340 341 341 341 341 341 341 341 341 342 341 340 339 339 338 337 335 331 326 322 318 316 309 303 300 300 302 304 307 313 316 317 316 314 311 308 308 308 308 307 308 309 310 312 312 311 312 315 318 320 326 330 331 330 331 331 331 332 333 333 333 333 333 333 332 332 332 331 331 331 330 330 330 330 330 329 329 329 328 328 327 327 327 327 327 327 327 327 327 326 326 326 326 326 326 326 326
331 334 336 337 338 338 339 339 340 340 340 340 340 340 340 341 341 340 339 338 337 335 332 328 321 316 314 307 302 298 298 298 299 300 301 302 304 307 308 308 308 307 306 305 305 307 307 308 309 310 310 310 312 314 316 321 327 331 330 330 330 330 331 331 332 332 332 332 331 331 330 330 330 329 329 329 328 328 328 328 328 327 327 327 327 326 326 326 326 325 325 325 325 325 325 325 325 325 325 325 325 325 325
326 327 330 333 334 335 334 334 334 336 337 338 335 332 333 334 336 337 337 334 332 331 327 320 312 306 304 300 297 296 296 296 297 298 299 299 300 302 304 305 306 306 304 304 305 306 306 307 308 308 308 309 311 312 317 324 329 331 329 329 329 329 329 330 330 330 331 330 330 329 329 328 328 327 327 327 326 326 326 326 326 326 326 325 325 325 325 324 324 324 323 323 323 324 324 324 324 324 324 324 324 324 324
322 323 324 324 325 326 326 325 326 328 330 334 331 326 326 326 326 327 327 323 322 320 316 309 303 299 298 297 296 295 295 296 296 297 298 298 299 300 302 303 305 305 303 303 305 305 306 307 307 307 307 308 309 312 316 326 330 330 328 328 328 328 329 329 329 329 329 329 328 327 327 327 326 325 325 325 324 324 324 324 324 324 324 324 324 323 323 323 322 322 322 322 322 322 322 322 322 322 322 323 322 323 323
322 322 321 321 322 322 321 322 323 324 325 330 329 326 325 323 320 318 318 315 312 309 305 301 299 297 296 296 295 295 295 296 296 296 296 297 298 299 300 301 302 303 302 303 304 305 305 306 306 306 306 307 308 311 316 325 328 329 328 327 327 328 328 328 328 328 328 327 327 326 326 325 324 324 323 323 322 322 322 322 323 323 322 322 322 322 322 321 321 321 321 320 320 320 321 321 321 321 321 321 321 322 322
321 322 321 321 322 322 321 322 323 325 326 330 329 326 325 321 317 315 314 312 308 304 301 298 297 296 295 294 294 293 293 295 296 297 295 296 297 298 298 299 300 301 301 302 302 304 304 305 305 305 305 304 306 309 315 323 326 327 327 327 327 327 327 327 327 327 327 326 325 325 324 323 322 322 321 321 321 320 320 321 321 321 321 321 321 320 320 320 320 320 319 319 319 319 319 320 320 320 320 320 320 321 321
321 322 320 322 322 322 322 322 324 326 328 330 329 326 322 319 315 312 312 309 306 302 299 297 295 294 293 293 293 292 292 292 293 293 293 294 295 296 297 298 298 299 300 300 301 302 303 304 304 304 303 303 304 306 313 321 325 325 325 326 326 326 326 326 326 326 326 325 324 323 322 322 321 320 320 320 319 319 319 319 319 319 319 319 319 319 319 319 319 319 318 318 318 318 318 319 319 319 319 320 320 320 320
321 322 321 322 322 322 322 323 323 325 328 330 329 326 320 315 313 310 309 307 304 301 298 295 294 293 293 293 292 292 291 291 291 291 291 292 294 295 296 296 297 297 298 299 300 301 301 301 301 301 301 302 303 305 309 319 323 324 324 324 324 324 325 325 324 324 324 323 323 322 321 320 320 319 319 318 318 318 318 318 318 318 318 318 318 318 318 318 318 318 318 318 318 317 317 318 318 318 319 319 319 319 319
321 322 320 321 321 322 322 323 323 325 328 329 327 323 317 313 310 308 306 304 301 299 296 294 293 293 293 293 292 292 291 291 291 290 290 291 293 294 296 296 296 297 297 298 299 299 298 298 298 298 299 301 302 303 305 315 321 323 323 323 323 323 323 323 323 323 323 322 322 321 320 320 319 319 318 318 317 317 317 318 318 318 318 318 318 317 317 317 317 317 317 317 317 317 317 318 318 318 318 318 319 319 319
321 322 321 321 322 323 323 323 324 325 328 328 326 322 317 312 308 306 304 302 299 297 296 294 294 294 294 293 292 291 291 291 290 290 289 290 291 293 295 296 296 296 296 297 297 297 297 297 297 297 298 299 301 302 303 311 318 322 322 322 321 321 321 321 321 321 321 321 321 321 320 320 319 318 318 317 317 317 318 318 318 318 317 317 317 317 317 317 317 317 317 317 317 317 317 317 317 318 318 318 318 318 318
321 322 322 322 323 323 323 324 324 325 328 327 324 320 316 311 307 304 302 300 299 297 297 296 296 295 295 295 294 292 291 291 290 289 289 290 290 290 293 294 294 294 295 295 296 296 296 296 296 296 297 297 299 301 303 309 315 321 321 320 320 320 319 319 320 319 320 320 320 320 319 319 319 318 318 318 318 317 317 317 317 317 317 317 317 317 317 317 317 317 317 316 316 316 316 317 317 317 317 317 317 318 318
321 322 321 321 322 323 323 323 324 325 327 326 322 317 313 310 307 304 302 300 298 297 296 295 295 295 295 295 294 294 295 293 292 290 289 289 288 289 290 292 292 293 293 294 294 294 294 295 295 296 297 296 297 298 301 305 312 318 320 319 319 318 318 318 318 318 318 318 319 319 319 319 319 318 318 318 318 318 318 318 317 317 317 317 317 317 316 316 316 316 316 316 316 316 316 316 317 316 317 317 317 317 317
321 320 321 321 322 323 323 323 323 324 326 325 321 315 311 308 306 304 302 300 298 297 295 295 295 295 295 295 295 295 295 294 292 290 289 288 288 288 290 290 291 291 291 291 291 292 292 293 294 295 296 296 297 298 300 301 307 314 318 318 317 317 316 316 316 316 316 316 317 317 318 318 318 318 318 318 318 318 318 317 317 317 317 317 317 316 316 316 316 316 316 316 315 315 316 316 316 316 316 316 316 316 317
321 320 320 321 322 323 323 323 323 323 324 324 319 313 307 306 304 303 301 300 298 297 297 297 297 296 296 295 295 294 294 294 292 291 289 288 288 288 290 289 289 289 288 289 290 290 291 292 292 293 293 295 296 298 299 300 302 306 316 316 316 315 315 315 315 314 314 315 315 316 316 317 317 317 317 317 317 317 317 317 317 317 317 317 317 317 317 316 316 316 316 316 315 315 315 316 316 316 316 316 316 316 316
321 320 320 321 321 322 322 323 322 322 322 321 315 309 304 303 302 300 299 298 296 296 296 296 296 296 295 295 294 293 292 291 291 291 289 289 288 287 286 286 287 287 287 289 289 290 290 291 292 292 292 293 295 296 297 298 298 302 311 315 315 314 314 313 313 313 313 313 314 314 315 315 316 316 316 317 317 317 317 317 317 317 317 317 317 317 317 317 316 316 316 316 315 315 315 315 315 315 315 315 315 315 315
321 320 320 320 321 322 322 323 322 320 319 317 312 307 302 301 299 298 297 296 294 293 293 293 293 294 294 294 293 292 292 291 291 292 291 289 288 287 285 286 286 286 286 288 289 289 289 290 291 292 292 293 293 294 295 297 298 300 303 311 314 314 313 313 312 312 312 312 312 313 314 314 314 315 315 316 316 316 316 316 317 317 317 317 317 317 317 316 316 316 316 315 315 315 315 315 315 315 315 315 314 314 314
321 320 320 320 321 321 321 321 320 318 316 312 308 304 300 298 297 296 296 295 295 294 293 293 292 292 293 293 293 292 291 290 290 290 290 289 288 287 286 286 286 286 286 287 287 287 288 289 290 291 292 292 293 293 293 295 297 299 300 308 312 314 313 313 312 311 311 311 311 311 312 313 313 313 314 314 314 315 315 315 316 316 316 316 316 316 316 316 316 315 315 315 315 315 315 314 314 314 314 314 314 314 314
322 321 320 320 321 321 321 320 319 316 311 308 305 301 299 298 298 297 297 296 295 295 294 293 293 293 293 293 293 292 292 291 291 291 290 289 288 287 287 286 286 286 287 287 287 287 288 289 289 290 291 291 291 291 292 293 295 297 298 300 304 308 309 310 310 310 310 310 310 310 311 311 311 311 312 312 312 313 313 314 314 315 315 315 315 315 315 315 315 315 315 315 315 315 315 315 314 314 313 313 313 313 313
322 320 320 320 320 320 319 317 315 312 308 305 303 301 299 299 298 298 297 296 295 294 295 295 296 296 296 294 293 292 292 292 292 291 290 289 289 289 288 287 286 286 288 288 288 288 288 288 288 288 289 289 290 290 290 291 292 293 295 294 296 297 299 300 304 308 309 309 309 309 309 309 309 310 310 310 310 311 311 312 313 313 314 314 314 314 314 314 314 314 314 315 315 315 315 315 314 313 313 313 313 313 313
323 320 320 319 318 318 317 312 310 307 306 304 303 302 301 300 299 298 298 296 296 295 296 296 296 296 295 293 292 292 291 290 290 290 289 289 289 289 290 289 288 287 287 287 287 287 287 287 286 286 286 287 288 289 288 291 291 291 292 292 292 292 293 294 296 299 304 308 309 308 308 308 308 308 308 308 309 309 309 310 311 312 312 313 313 313 313 313 313 313 314 314 315 315 315 315 314 313 312 312 312 312 312
323 321 319 319 317 315 313 309 306 305 306 304 303 302 301 300 299 297 298 296 296 296 295 295 294 293 292 292 291 291 291 289 288 288 287 287 288 288 288 289 289 289 288 287 286 286 286 285 285 285 286 286 286 286 287 289 290 289 289 289 289 290 290 290 291 292 293 299 304 307 307 307 307 306 307 307 307 307 307 308 309 310 310 311 311 311 311 311 312 312 313 313 314 314 314 314 314 313 312 312 312 312 312
323 322 320 318 315 313 310 306 304 304 305 304 303 301 300 300 299 298 297 296 295 294 293 293 293 292 291 291 290 289 288 288 287 287 286 286 286 286 286 288 289 289 289 289 288 287 286 285 285 285 285 285 285 285 288 288 288 288 286 286 286 287 288 290 291 290 288 290 295 302 307 306 306 306 305 305 305 305 306 306 307 308 308 309 310 310 310 310 310 311 311 312 313 313 314 314 313 313 312 312 312 312 311
323 322 321 318 314 310 306 304 304 304 305 304 302 300 300 300 299 298 296 295 294 293 291 291 292 292 291 290 289 288 287 286 285 285 285 285 285 285 285 287 287 288 289 290 288 287 286 285 285 285 285 283 284 286 288 288 287 287 286 285 285 286 290 293 292 289 287 287 290 295 303 306 306 305 305 304 304 304 304 304 305 306 307 307 308 308 308 309 309 310 310 311 312 312 313 313 313 312 312 311 311 311 311
322 322 320 317 312 307 303 304 305 305 305 303 302 300 300 300 300 298 297 295 293 292 291 290 290 290 290 289 288 287 287 286 285 284 284 284 284 284 284 286 287 287 288 289 287 286 286 285 285 285 284 283 284 286 287 287 287 287 285 285 285 287 292 292 289 286 285 286 287 289 293 302 305 305 304 304 304 303 303 303 303 304 305 306 306 307 307 307 308 308 309 310 310 311 312 312 312 312 311 311 311 310 310
322 321 319 315 310 305 302 303 305 305 304 302 301 300 300 299 298 297 297 295 294 292 291 289 288 287 288 288 288 287 287 286 285 284 283 283 284 284 285 285 286 286 287 286 287 287 287 287 288 288 287 285 285 286 286 287 287 286 285 285 285 287 288 287 285 284 284 285 285 285 285 291 298 303 303 303 303 303 302 302 302 303 303 304 305 305 306 306 306 307 308 309 309 310 311 311 311 311 311 311 310 310 310
321 320 317 313 308 304 302 303 304 304 303 302 300 299 299 297 296 296 296 295 294 292 290 288 288 287 287 288 287 287 287 286 285 284 283 284 285 285 285 286 286 286 286 287 287 288 288 289 291 291 289 287 286 286 285 286 285 285 284 284 285 285 285 284 284 284 284 284 284 284 283 284 288 293 298 299 300 300 300 302 302 303 303 303 304 304 304 305 305 306 306 307 308 309 310 310 310 310 310 310 310 310 310
320 318 315 311 306 303 301 303 304 303 302 301 299 298 297 295 295 295 295 294 293 291 289 288 288 287 286 286 287 287 286 285 285 285 284 285 285 286 286 286 286 286 286 287 288 288 288 289 289 288 287 287 286 285 285 287 286 284 283 283 284 284 284 284 284 284 284 284 284 283 284 283 283 284 287 290 291 292 295 299 301 303 304 303 303 303 303 303 304 304 305 306 307 308 308 309 309 309 309 309 309 309 309
319 316 313 308 305 303 301 302 303 303 301 300 298 297 296 295 295 294 294 293 292 291 289 289 288 288 288 286 286 285 284 284 285 287 287 287 287 287 288 286 286 287 287 288 288 287 287 288 287 286 286 287 286 286 287 291 289 285 283 283 283 283 284 284 283 283 283 283 283 283 283 283 282 282 283 285 285 286 289 294 298 301 303 304 304 303 303 303 303 303 304 305 306 307 307 308 308 308 308 308 309 309 309
318 315 312 307 305 303 301 302 302 302 300 299 298 297 296 295 295 295 294 293 291 290 290 289 289 289 289 289 287 285 284 284 285 286 287 287 288 289 291 288 286 287 287 288 288 287 286 286 285 285 285 287 286 286 286 290 289 286 285 284 284 283 283 284 283 282 282 282 282 282 282 282 282 282 284 285 285 285 285 289 294 298 301 302 303 303 303 303 303 303 303 304 305 305 306 307 307 307 307 307 308 308 308
317 314 311 306 304 302 301 301 301 301 300 300 299 298 297 297 296 295 294 294 292 291 292 291 289 288 287 287 286 285 284 283 284 284 285 286 286 287 287 286 286 286 286 287 287 288 287 283 283 284 284 285 285 285 285 287 287 287 287 287 285 283 283 284 283 282 282 282 282 282 282 282 281 282 283 284 284 284 284 285 289 294 297 299 300 301 302 303 303 303 303 304 304 305 305 306 306 307 307 307 307 307 307
316 314 309 305 303 302 300 300 301 301 301 301 301 300 298 297 296 295 295 294 293 292 291 292 291 288 286 286 286 285 284 283 283 284 285 286 286 286 285 285 285 286 286 286 287 288 286 283 282 283 284 284 285 285 286 286 286 286 286 286 285 284 283 284 283 282 281 281 282 282 282 282 281 281 282 283 283 283 283 284 285 287 291 295 297 298 299 300 301 302 303 304 304 304 305 305 306 306 306 307 307 307 307
315 312 308 304 303 302 301 300 300 301 301 301 301 300 297 296 295 296 295 293 292 291 289 289 288 287 286 285 285 285 285 283 282 283 285 284 285 285 286 285 285 285 286 286 286 287 284 283 282 282 283 284 284 285 285 285 284 285 286 285 285 284 283 283 283 282 281 282 282 282 282 281 281 282 283 283 283 282 282 283 283 284 286 287 290 292 294 297 299 301 302 303 304 304 304 305 305 306 306 306 306 307 307
313 310 307 304 302 301 301 300 301 301 300 301 299 297 297 296 296 295 293 291 290 290 290 288 287 287 286 285 284 284 285 283 283 283 286 283 282 283 284 283 284 286 287 286 287 288 285 283 282 281 282 283 284 284 284 284 284 283 284 284 284 284 283 284 283 282 282 282 282 282 282 282 282 282 282 281 282 282 281 282 282 282 283 283 284 286 288 290 295 299 301 302 303 303 304 304 305 306 306 306 306 306 307
313 310 307 304 302 301 301 300 301 302 302 300 297 295 295 295 294 294 293 291 291 291 292 290 288 286 285 285 284 284 283 283 283 283 286 283 281 280 280 284 285 283 282 285 287 289 287 285 284 283 281 282 282 283 283 283 283 283 283 283 283 283 283 284 284 283 283 282 282 282 282 282 282 281 281 281 281 281 281 281 281 282 282 282 284 286 287 290 293 297 299 301 301 302 303 304 304 305 305 306 306 306 307
312 309 308 305 303 301 300 300 300 301 302 299 297 295 295 294 294 293 292 292 291 290 290 290 289 288 286 286 285 285 286 285 283 283 285 283 281 280 280 283 283 281 279 282 284 285 286 284 285 285 282 281 281 281 281 282 283 284 283 281 281 282 283 284 283 283 283 283 282 282 283 282 282 281 281 281 281 281 281 280 281 281 281 281 282 284 283 288 293 296 297 298 299 301 301 302 303 304 305 305 305 306 306
311 308 307 306 304 301 300 300 300 300 300 300 298 297 296 294 294 293 292 292 291 290 291 291 291 289 287 284 283 284 286 287 285 282 283 283 284 285 284 280 278 278 277 280 281 283 285 282 281 282 284 281 280 280 280 281 282 282 283 281 281 281 282 282 282 282 282 282 282 282 282 282 282 281 281 281 281 280 280 280 280 280 281 280 281 282 283 288 292 295 295 296 297 298 300 302 303 304 304 304 305 305 306
309 307 307 306 304 302 301 300 300 300 300 300 299 298 297 295 294 294 293 292 292 291 291 291 291 290 290 285 283 283 283 286 285 283 282 282 283 285 286 281 280 279 277 278 280 282 283 280 278 279 283 280 280 281 281 281 280 282 286 283 281 280 281 282 282 282 282 282 282 282 281 281 281 281 281 280 280 280 280 280 280 280 280 280 282 284 286 290 291 291 292 293 296 299 300 303 304 304 303 304 304 305 305
309 307 306 305 303 302 301 300 299 299 299 299 300 299 298 297 296 295 294 293 292 291 292 291 290 289 290 288 285 283 283 283 284 284 282 283 284 285 286 284 282 281 282 281 281 281 280 277 278 281 283 281 281 282 282 281 280 280 285 282 280 280 281 282 282 282 282 281 281 281 281 282 282 281 281 280 280 280 280 280 280 280 280 280 282 283 283 285 286 288 290 291 294 298 302 303 303 303 303 304 304 304 305
309 306 305 304 303 301 301 300 300 299 299 300 301 301 299 297 296 294 293 292 291 291 292 292 290 287 286 288 287 285 283 284 286 287 285 283 283 283 281 283 284 286 287 286 284 281 277 276 280 283 283 282 282 281 281 280 280 279 281 280 279 279 281 281 281 282 282 282 281 281 281 284 282 281 280 280 280 281 281 281 281 281 281 281 282 283 284 285 288 290 290 292 293 295 302 302 303 303 303 304 304 304 305
309 307 305 303 302 302 302 301 300 300 300 301 301 300 299 297 295 294 293 292 291 291 290 291 290 287 285 286 286 286 285 284 284 285 285 284 283 282 281 281 281 281 284 285 283 281 278 277 279 281 281 282 282 281 280 279 280 280 279 279 279 279 279 279 280 281 281 281 282 282 281 282 282 281 281 280 281 281 281 281 281 281 281 282 283 284 286 288 291 294 292 294 296 298 301 302 302 303 303 303 303 304 304
308 306 304 303 302 302 303 302 302 301 301 302 301 299 298 297 295 294 293 292 292 291 290 290 290 289 288 286 286 287 286 285 285 283 283 284 284 283 281 281 282 283 283 280 279 279 280 281 280 278 278 280 281 282 281 280 280 280 280 279 279 278 279 279 280 280 281 281 281 281 281 281 281 282 281 281 281 281 281 281 281 281 281 283 284 285 288 290 293 295 297 299 299 300 300 301 301 302 302 303 303 303 303
307 305 304 302 301 302 303 303 302 301 301 302 301 299 298 297 296 295 293 292 292 292 291 290 289 289 290 288 288 288 287 286 285 283 283 284 284 284 283 282 281 281 282 280 278 278 279 281 281 279 279 280 280 280 281 281 280 279 279 278 278 278 279 279 280 280 281 281 280 280 281 280 281 281 281 281 281 281 281 281 281 281 281 282 283 285 288 287 287 290 294 298 299 299 299 300 300 301 301 302 302 303 303
306 305 304 302 301 302 303 303 302 301 302 302 301 300 298 297 296 294 293 292 293 293 291 290 289 288 288 287 287 288 289 287 285 283 283 285 285 285 285 283 282 282 283 281 280 279 278 278 278 279 281 281 279 278 279 279 279 280 280 279 278 278 279 279 280 280 280 280 280 280 280 280 280 280 280 281 281 281 281 281 281 281 281 282 282 284 286 286 286 287 289 294 297 298 298 298 299 299 300 301 301 302 302
Wind_Speed
10 10 10 10 9 9 9 9 9 9 9 9 9 9 9 9 9 8 8 8 8 8 8 8 8 8 8 8 8 7 7 7 7 7 7 8 8 9 8 8 8 7 7 7 8 8 9 7 6 5 5 5 4 4 4 4 3 3 3 3 3 3 4 6 6 4 1 2 3 4 4 1 3 3 2 3 3 4 5 5 5 4 3 2 3 4 5 5 4 4 4 5 4 5 5 6 6 6 5 4 3 3 3
11 11 10 10 9 9 9 9 9 9 9 8 8 8 9 8 8 8 8 7 7 8 8 8 8 8 8 8 7 7 7 7 7 7 8 8 9 9 9 8 8 8 8 9 9 10 10 7 6 6 6 5 4 4 4 3 3 3 3 3 3 4 4 6 5 3 1 3 5 5 4 1 2 1 2 5 6 7 8 8 7 5 4 4 4 4 4 4 4 4 4 5 4 4 5 5 4 3 3 4 4 5 5
11 11 10 10 9 9 9 9 8 8 8 8 8 8 8 8 8 8 7 7 7 7 7 7 7 7 8 7 7 7 7 7 7 7 8 8 9 9 9 9 9 9 10 10 11 11 10 8 7 6 6 5 4 4 4 3 3 3 3 3 3 4 5 6 4 3 3 4 6 6 5 1 1 2 5 7 8 8 8 7 5 4 3 4 3 1 1 2 3 4 4 4 3 2 4 4 3 2 1 4 6 7 6
11 11 10 10 9 9 9 8 8 8 8 7 7 8 8 8 8 7 7 7 7 7 7 7 7 7 8 8 8 7 7 7 7 8 8 8 9 9 9 10 10 10 11 11 12 11 8 7 6 6 6 5 4 3 3 2 2 2 2 3 4 5 6 4 3 3 4 5 7 7 5 2 2 5 7 8 7 7 6 4 1 1 2 4 4 4 3 4 5 5 3 2 2 3 4 4 4 4 4 6 7 7 7
11 11 10 10 9 9 9 9 8 8 8 7 7 7 7 7 7 7 7 7 6 6 7 7 7 8 8 8 7 7 7 7 7 8 8 8 9 9 10 10 11 11 11 11 11 10 7 6 6 5 5 4 3 2 1 1 1 1 2 2 3 4 3 3 4 5 5 6 6 6 5 3 5 7 8 7 6 6 5 4 2 2 3 4 4 4 4 4 4 5 5 5 6 7 8 8 8 7 6 8 8 9 9
11 10 10 9 9 9 9 9 8 8 8 7 7 7 7 7 7 7 6 6 6 6 7 7 7 8 8 7 7 7 7 7 8 8 8 8 9 9 10 11 11 11 12 11 11 10 8 6 5 4 4 3 2 2 1 1 1 1 2 2 3 4 3 5 6 6 6 6 6 6 6 7 8 8 8 7 6 5 4 3 3 4 5 6 7 7 7 7 7 7 8 8 9 11 12 12 11 9 7 8 9 10 11
10 10 9 9 9 9 8 8 8 8 8 8 7 7 7 7 6 6 6 7 7 7 7 7 7 7 7 7 7 7 7 8 8 8 8 8 9 9 10 11 11 12 12 12 11 10 8 6 5 5 4 3 2 2 2 2 2 2 2 3 3 4 4 5 5 6 6 7 7 8 8 9 9 8 8 7 6 6 5 5 5 6 7 8 10 11 11 11 11 10 10 10 11 13 13 12 11 10 9 10 11 11 12
10 9 9 8 8 8 8 8 8 8 8 8 7 7 7 6 6 6 6 7 7 7 7 7 7 7 7 7 7 7 8 9 9 8 8 8 8 9 10 11 12 12 12 12 11 11 9 7 5 5 3 3 2 3 2 3 3 3 3 3 4 4 4 4 5 5 6 7 7 8 8 8 8 8 8 7 7 7 7 7 7 7 8 10 12 13 13 12 11 10 10 11 13 13 12 10 10 9 10 11 12 12 12
10 9 8 8 8 7 7 8 8 8 8 7 7 7 6 6 6 6 6 7 7 7 7 7 7 7 7 7 8 8 9 9 9 8 8 7 8 9 10 11 12 12 12 11 11 11 10 7 5 4 3 3 3 3 3 3 3 3 3 4 4 4 3 3 4 5 6 7 7 7 8 8 8 7 7 7 7 7 7 8 8 9 10 11 13 13 12 11 10 10 10 12 13 13 11 10 9 10 11 12 12 12 12
10 9 8 8 7 7 7 8 8 8 8 7 7 6 6 6 6 6 6 7 7 7 7 7 7 7 7 8 9 10 10 10 9 8 7 7 8 9 11 12 12 12 12 11 11 11 10 6 5 4 3 3 3 3 3 3 3 3 3 4 4 3 2 2 4 5 6 7 7 7 8 8 8 7 7 7 7 8 8 8 9 9 10 11 11 11 10 10 9 10 11 12 13 12 11 11 10 11 11 12 12 12 13
10 9 9 8 7 7 7 7 8 8 8 7 7 6 6 6 6 6 6 7 7 6 6 7 7 8 9 10 10 10 10 10 9 8 8 8 8 9 11 12 12 12 11 11 11 10 9 6 5 4 3 3 3 3 3 3 3 3 3 4 3 3 2 3 4 5 6 7 7 8 8 8 7 7 7 7 7 8 9 9 9 9 10 10 10 10 10 9 10 10 11 13 13 12 12 11 11 11 11 12 12 12 12
10 10 9 8 7 7 7 7 8 8 7 7 6 6 6 6 6 6 6 6 6 6 6 7 8 9 10 11 11 11 10 10 9 9 8 9 9 10 12 12 12 12 11 11 10 10 8 6 5 4 3 3 3 3 3 3 3 3 3 3 3 3 3 3 4 6 7 7 8 8 8 7 7 7 7 7 7 8 9 9 9 9 10 10 10 10 10 10 10 11 11 12 12 12 12 11 11 11 11 11 12 12 12
10 10 8 7 7 6 6 7 7 7 7 6 6 6 6 6 6 6 6 6 6 6 7 8 10 11 11 11 11 11 10 10 10 9 9 10 11 11 12 12 12 12 11 10 9 8 6 5 4 4 4 3 3 3 3 3 3 3 3 3 4 4 4 4 5 6 7 7 8 8 8 7 7 6 6 7 7 7 8 8 9 9 9 10 10 10 10 10 10 10 11 11 11 11 11 11 11 11 11 11 12 12 12
9 8 7 6 6 6 5 6 6 7 7 6 6 5 5 6 6 6 6 6 6 7 8 9 11 11 11 11 11 11 10 10 10 10 11 11 12 12 12 12 12 11 11 9 7 5 4 4 4 4 4 3 3 3 4 3 3 3 3 4 5 5 5 6 6 6 7 7 8 8 8 8 7 7 7 7 8 8 8 8 9 9 10 10 10 10 11 11 11 11 11 11 11 10 10 10 11 11 11 11 11 11 11
7 6 6 5 5 5 5 5 6 6 6 6 5 5 5 5 6 6 6 6 6 7 9 10 11 11 11 11 11 11 10 10 10 11 11 12 12 12 12 12 11 11 10 7 4 3 4 4 4 4 3 3 3 3 4 3 3 3 4 5 6 6 7 7 7 7 7 7 8 8 8 8 8 8 9 9 9 9 9 9 9 10 10 10 10 10 11 11 11 11 11 11 10 10 10 10 10 10 10 10 10 10 10
6 6 5 5 5 5 4 5 5 6 6 5 4 4 4 5 5 6 6 6 7 8 9 11 11 11 11 11 11 10 10 10 10 11 11 12 12 12 12 11 11 9 7 4 3 4 4 4 4 3 4 4 4 4 4 3 3 3 6 6 7 7 7 7 7 7 7 7 8 8 8 9 9 10 11 11 11 10 10 10 10 10 10 10 10 10 11 11 11 11 11 11 10 10 10 10 10 10 9 10 10 9 9
6 5 5 5 5 4 4 4 5 5 5 5 4 4 4 5 5 6 6 6 7 8 10 11 11 11 11 11 11 10 7 8 8 9 11 11 11 11 11 11 9 8 5 4 3 4 4 4 4 4 4 5 4 4 4 4 3 4 6 6 7 7 7 8 8 8 8 8 8 8 9 9 10 11 11 11 11 11 11 11 11 11 11 10 10 10 10 10 10 11 11 10 10 10 10 9 9 9 9 9 9 9 9
5 6 6 5 5 4 4 4 4 4 5 5 4 4 4 5 5 6 7 7 8 9 10 11 11 11 11 11 10 8 5 5 5 6 8 9 10 10 10 9 7 6 4 4 4 4 4 4 4 4 4 4 4 4 4 4 4 5 7 6 7 7 7 8 8 8 9 9 9 9 9 9 10 11 11 11 11 11 11 11 11 11 11 10 10 10 9 9 9 9 10 9 9 9 9 9 9 9 8 8 8 8 8
5 6 6 5 5 4 4 3 3 4 4 5 4 4 4 5 6 7 7 7 8 9 11 11 11 11 11 11 9 6 4 4 4 4 4 6 7 8 8 6 5 4 4 4 4 4 4 4 4 4 4 4 4 4 5 4 5 7 7 6 6 7 7 8 8 9 9 9 10 10 10 10 10 10 10 10 10 11 11 11 11 10 10 10 10 9 9 9 9 9 9 9 9 8 8 8 8 8 8 8 8 8 8
4 4 5 4 4 4 4 3 3 3 3 4 4 4 4 5 6 7 8 8 9 10 11 11 11 10 10 8 6 5 4 4 4 4 3 4 4 5 4 4 4 4 4 4 4 4 4 4 4 4 3 4 4 5 5 5 6 7 7 7 7 7 7 7 8 9 9 9 10 10 10 9 9 9 9 9 9 10 10 10 10 9 9 9 9 9 9 8 8 8 8 8 8 8 8 8 8 8 8 8 7 7 8
2 2 2 2 2 2 2 2 2 2 2 4 5 4 4 4 5 7 8 8 9 10 11 10 9 7 6 6 5 5 4 4 4 4 4 3 3 3 3 3 3 3 3 3 4 4 3 3 3 3 4 4 4 5 5 6 7 8 7 7 6 6 7 7 8 8 8 9 9 9 9 9 9 8 8 8 8 9 9 9 9 9 8 8 8 8 8 8 7 7 7 7 7 8 8 8 7 7 7 7 7 7 7
2 1 1 1 1 1 1 1 1 2 2 5 5 4 3 4 4 6 7 6 7 8 9 8 6 4 4 5 5 5 4 4 4 4 3 3 3 3 3 3 3 3 3 3 3 3 3 3 3 3 4 4 4 4 5 7 9 9 7 7 6 6 6 7 7 8 8 8 8 8 8 8 8 8 8 8 8 8 8 8 8 8 8 8 8 8 7 7 7 7 7 7 7 7 7 7 7 7 7 7 7 7 7
2 2 1 1 1 1 1 1 2 2 3 4 4 3 2 3 4 4 5 5 5 6 6 6 5 4 3 4 5 4 3 3 4 4 4 3 3 3 3 3 3 3 3 4 4 3 3 3 3 3 4 4 4 4 5 8 9 9 8 7 6 6 6 7 7 7 8 8 8 8 8 8 8 7 7 7 7 7 7 7 7 7 7 7 7 7 7 7 7 7 7 7 7 7 7 7 7 7 7 7 7 7 7
2 2 2 1 1 1 1 1 2 2 2 3 3 3 2 2 3 3 4 4 4 5 5 5 4 3 3 4 4 4 3 4 4 4 4 4 3 3 3 3 3 3 3 4 4 3 3 3 3 3 4 4 4 4 5 8 10 10 9 8 7 6 7 7 7 7 8 8 7 7 7 7 7 7 7 7 7 7 7 7 7 7 7 7 7 7 7 7 7 7 7 7 7 7 6 6 6 6 6 7 7 7 7
2 2 2 2 1 1 1 1 2 2 2 2 3 3 3 2 2 3 3 4 4 4 5 4 4 3 4 5 5 4 4 4 4 4 3 4 4 4 3 4 3 3 3 3 3 3 3 3 3 3 4 4 4 4 5 8 10 10 10 9 8 7 7 7 7 7 7 7 7 7 7 7 7 7 7 7 7 7 7 7 7 7 7 7 7 7 7 7 7 7 7 7 7 7 6 6 6 6 6 6 7 7 7
2 2 2 2 2 2 1 1 2 2 2 2 2 3 3 3 2 2 3 3 4 4 4 4 3 4 4 5 5 5 4 4 5 4 3 4 4 5 5 4 3 3 3 3 3 3 3 3 3 3 3 3 3 4 5 7 9 10 10 10 9 8 8 7 7 7 7 7 7 7 7 7 7 7 6 6 6 6 6 7 7 7 7 7 7 7 7 7 7 7 7 7 7 7 6 6 6 6 6 6 7 7 7
2 2 2 2 2 2 2 2 2 2 2 1 2 3 3 3 2 2 3 3 4 4 4 4 4 4 4 5 6 5 4 4 4 4 4 3 3 4 5 4 4 3 3 3 3 3 3 3 3 3 3 3 3 3 3 7 9 10 10 11 10 10 9 8 8 8 8 7 7 7 7 7 7 7 7 7 6 7 7 7 7 6 6 7 7 7 7 6 7 7 7 7 7 7 6 6 6 6 6 6 6 7 7
2 2 2 2 2 2 2 2 2 2 2 2 2 2 3 3 3 2 2 3 4 4 4 4 3 3 3 4 5 5 4 4 4 4 4 3 3 3 5 4 4 3 3 3 3 3 3 3 3 3 3 3 3 3 3 5 8 10 11 11 11 11 10 10 9 8 8 8 8 7 7 7 7 7 7 7 7 7 7 7 6 6 6 6 6 6 6 6 6 6 7 6 6 6 6 6 6 6 6 6 6 6 7
2 2 2 2 2 2 2 2 3 3 3 3 2 2 2 3 3 3 2 3 3 4 4 3 3 3 3 3 4 4 3 4 4 4 4 3 3 3 3 4 4 3 3 3 3 3 3 3 3 3 3 3 3 3 3 4 7 10 11 11 12 12 12 11 10 10 9 9 8 8 8 7 7 7 7 7 7 7 6 6 6 6 6 6 6 6 6 6 6 6 6 6 6 6 6 6 6 6 6 6 6 6 7
2 2 2 2 2 3 2 2 2 3 3 3 3 2 2 2 3 3 3 3 3 4 4 3 3 2 3 3 3 4 3 4 4 4 4 4 3 3 3 4 4 3 3 3 3 2 2 3 3 3 3 3 3 3 3 3 6 9 11 11 12 12 12 12 11 10 10 9 9 8 8 8 7 7 7 7 7 7 6 6 6 6 6 6 6 6 6 6 6 6 6 6 6 6 6 6 6 6 6 6 6 6 6
3 2 3 3 2 2 2 2 2 2 3 3 3 3 2 2 3 3 4 3 3 4 4 4 3 3 3 3 3 3 3 3 4 4 3 4 3 3 3 3 3 3 2 2 2 2 2 2 2 2 2 2 2 3 3 3 5 8 11 11 12 12 12 12 11 11 10 10 9 9 8 8 8 7 7 7 7 7 7 6 6 6 6 6 6 6 6 6 6 6 6 6 6 6 6 6 6 6 6 6 6 6 6
3 3 3 3 3 3 2 2 2 2 2 3 3 3 2 2 3 3 3 3 3 3 4 4 4 4 3 3 3 2 2 3 3 3 3 3 3 3 3 3 3 3 2 2 2 2 1 2 2 2 2 2 3 3 3 3 4 5 9 11 11 12 12 12 11 11 10 10 9 9 9 8 8 8 7 7 7 7 7 7 7 6 6 6 6 6 6 6 6 6 6 6 5 5 5 5 6 6 6 6 6 6 6
3 3 3 3 3 3 3 3 3 3 2 3 3 3 3 3 3 3 3 3 2 2 3 3 3 4 4 4 3 2 2 2 3 3 3 3 3 2 2 3 2 2 1 2 2 2 2 2 2 2 2 2 3 3 3 3 3 4 5 8 10 11 11 11 11 11 10 10 10 9 9 9 8 8 8 8 8 7 7 7 7 7 7 7 7 6 6 6 6 6 6 6 5 5 5 5 6 6 6 6 6 6 6
4 4 3 3 3 3 3 3 3 3 3 3 3 4 4 4 4 4 4 4 3 3 3 3 3 3 4 4 4 3 3 2 2 3 3 3 2 2 2 2 2 2 2 2 2 2 1 2 2 2 2 2 2 3 3 3 3 3 3 5 8 9 10 10 10 10 10 10 10 9 9 9 9 9 8 8 8 8 8 8 7 7 7 7 7 7 7 6 6 6 6 5 5 5 5 5 5 5 6 6 6 5 5
4 4 4 3 3 3 3 3 3 3 3 3 3 4 5 5 5 5 5 5 4 4 3 3 3 3 4 4 4 4 3 2 3 3 4 3 2 2 2 2 2 2 2 2 2 1 1 2 2 2 2 2 2 3 2 2 2 2 3 5 6 7 9 9 9 9 10 10 10 10 10 9 9 9 9 9 9 9 8 8 8 8 8 8 8 7 7 7 7 6 6 5 5 5 5 5 5 5 5 5 5 5 5
4 4 4 4 3 3 3 3 3 3 3 3 4 5 6 5 5 4 4 4 4 4 3 2 3 3 4 4 5 4 3 3 3 4 4 3 2 1 2 2 2 1 2 2 1 1 2 2 1 1 2 2 2 2 2 2 2 2 2 3 4 5 6 7 7 8 9 9 9 10 10 10 10 10 9 9 9 9 9 9 9 8 8 8 8 8 8 7 7 7 6 6 5 5 5 5 5 5 5 5 5 5 5
4 4 4 4 4 4 3 3 3 4 4 4 4 4 5 5 4 4 4 4 4 4 3 3 3 3 4 4 4 4 3 3 3 4 3 2 2 2 2 2 2 2 2 1 1 1 2 1 1 1 1 1 1 2 2 2 2 2 2 2 3 3 3 3 4 5 7 8 9 9 9 9 10 10 10 9 9 9 9 9 9 9 9 9 8 8 8 8 8 7 6 6 5 5 5 5 5 5 4 4 4 4 4
5 4 4 4 4 4 4 3 4 4 4 4 4 4 4 4 4 4 4 5 4 4 3 3 3 3 3 3 3 3 2 2 3 3 2 2 2 2 2 2 2 2 2 1 1 1 2 1 1 1 1 1 1 2 1 2 2 2 2 2 2 2 2 2 2 3 4 5 7 8 8 9 9 9 10 10 9 9 9 9 9 9 9 9 9 9 9 8 8 7 7 6 6 5 5 4 4 4 4 4 4 4 4
5 4 4 4 4 4 4 4 4 5 4 4 4 4 4 5 4 4 4 5 4 4 3 3 3 3 3 3 3 3 3 2 3 3 2 2 2 2 2 2 2 2 1 1 1 2 1 1 1 1 1 2 2 1 2 2 2 2 2 2 2 2 2 2 2 2 2 3 4 6 7 8 8 9 9 9 9 9 9 9 9 9 8 8 8 9 9 8 8 8 7 6 6 5 5 4 4 4 4 3 3 3 3
5 5 4 4 4 4 4 4 5 5 4 4 4 4 4 5 5 4 4 4 4 3 2 3 3 3 2 2 3 3 3 3 3 3 2 2 2 2 2 2 2 2 1 1 1 1 1 1 1 1 2 2 1 1 2 2 2 2 2 2 2 2 2 2 2 2 2 2 2 4 6 7 7 7 8 8 9 9 9 8 8 8 8 8 8 8 8 8 8 8 7 7 6 6 5 5 4 4 3 3 3 3 3
5 5 5 4 4 4 4 5 6 5 4 4 4 4 4 5 5 5 5 4 3 2 2 2 3 3 2 2 2 3 2 2 2 3 3 3 2 2 2 2 2 2 2 2 2 1 1 1 1 1 2 2 2 2 2 2 2 2 2 3 3 3 3 3 3 3 2 2 2 3 5 6 6 6 7 7 8 8 8 8 7 7 7 7 8 8 8 8 8 8 8 7 7 6 6 5 5 4 3 3 3 2 3
5 5 5 5 4 4 5 6 6 6 5 4 4 4 5 5 5 5 6 4 3 2 2 2 2 3 3 2 2 2 2 2 2 2 3 3 2 2 2 2 3 2 2 2 2 2 1 1 1 1 1 1 2 2 2 2 2 3 3 3 4 4 4 4 4 3 3 3 3 3 4 6 6 7 7 7 7 7 7 7 6 6 7 7 7 7 7 8 8 8 8 7 7 6 6 6 5 4 4 3 2 2 2
6 6 5 5 5 5 6 6 6 6 5 4 4 5 5 4 5 5 5 5 4 3 2 2 2 2 3 3 3 2 3 2 2 2 2 3 3 3 3 3 3 3 2 2 2 2 1 1 1 1 1 1 2 2 2 2 3 3 3 3 3 3 4 4 3 3 3 3 3 3 3 5 7 8 8 8 8 8 8 7 6 6 6 6 6 6 7 7 7 8 8 7 7 7 6 6 5 5 4 3 2 2 2
6 6 5 5 5 5 6 7 6 5 5 5 5 5 4 4 4 4 4 4 4 4 2 2 2 2 2 3 3 3 3 3 2 2 2 3 3 3 3 3 3 3 2 2 2 2 2 1 1 1 2 2 2 2 2 2 2 2 2 2 2 2 3 3 3 3 3 3 3 3 3 3 5 7 8 8 9 9 9 8 8 7 7 6 6 6 6 6 7 7 7 7 7 7 6 6 6 5 4 4 3 2 2
6 6 5 5 6 6 7 7 6 5 5 5 5 5 4 4 4 4 4 3 4 4 3 2 2 2 2 2 2 2 3 3 3 2 2 3 3 4 4 3 3 3 2 3 2 2 2 2 2 2 2 2 2 1 1 1 1 1 1 2 2 2 2 3 3 3 3 3 3 3 3 4 3 4 5 6 6 7 8 9 9 9 8 7 7 6 6 6 6 7 7 7 7 7 7 6 6 5 5 4 4 3 3
6 6 5 6 6 7 7 7 6 5 5 5 5 5 5 5 5 5 4 3 3 3 4 3 3 3 4 4 3 2 2 2 3 3 3 3 4 4 4 3 2 2 3 2 2 2 2 2 2 3 3 2 2 1 1 1 1 1 1 2 2 2 3 3 3 3 3 2 2 3 4 4 4 3 3 3 4 4 5 8 9 9 9 8 8 7 7 6 6 6 7 7 7 7 7 6 6 6 5 5 4 4 4
7 6 6 6 7 7 7 7 6 6 5 5 6 6 6 6 5 5 5 5 4 4 4 5 4 3 4 5 4 3 2 1 2 3 3 3 4 4 5 3 2 2 2 2 2 2 2 3 3 3 3 3 2 2 1 1 1 1 2 2 2 2 3 3 4 3 3 2 2 3 4 4 4 3 3 3 3 3 4 6 7 8 9 9 9 8 8 7 7 7 7 7 7 7 7 7 7 6 6 6 5 5 5
7 7 6 7 7 7 7 7 6 6 6 6 7 7 8 7 7 7 6 6 5 5 4 5 5 4 3 3 3 2 1 1 1 2 3 3 4 4 3 2 2 2 2 2 2 3 3 3 3 3 3 3 3 2 2 1 1 2 2 2 2 3 3 3 4 3 2 2 3 4 4 4 4 4 3 3 3 3 3 4 5 7 8 9 9 9 8 8 8 8 8 8 7 7 7 7 7 7 7 6 6 6 6
8 7 6 6 7 7 7 7 7 7 7 7 8 8 9 9 8 8 7 6 5 5 3 3 4 4 4 2 1 1 1 1 0 1 3 4 3 2 2 2 3 3 2 2 2 2 3 3 3 3 3 3 3 2 2 2 2 2 2 3 3 3 3 3 3 3 2 3 4 4 5 4 4 3 3 2 2 2 2 2 3 4 6 8 8 9 8 8 8 8 8 8 8 8 8 8 8 8 7 7 7 7 7
8 7 6 6 7 7 7 8 8 7 7 6 6 6 7 7 7 7 7 7 6 5 3 2 2 3 4 3 1 0 1 1 0 2 4 3 2 1 1 2 3 3 2 2 1 1 2 3 3 3 3 3 2 2 2 2 2 2 2 3 3 3 3 3 2 2 2 3 4 4 4 4 3 2 2 2 2 2 2 2 2 3 4 5 6 7 7 8 8 8 8 8 8 8 8 8 9 8 8 8 8 8 7
8 8 8 7 7 7 8 9 8 7 7 6 5 5 6 7 7 8 8 8 7 6 5 3 2 2 2 2 1 1 1 1 0 2 3 2 2 2 3 1 1 3 4 4 3 2 2 2 2 2 3 2 2 3 3 2 3 3 2 3 3 3 2 2 1 1 2 3 4 4 4 3 2 2 1 1 1 2 2 2 2 2 3 3 3 4 4 5 6 7 8 8 8 8 8 9 9 9 9 9 9 8 8
9 9 9 8 8 7 7 8 8 8 7 6 5 5 5 7 7 6 6 8 8 7 7 5 3 1 2 2 1 0 1 1 0 2 4 3 2 1 2 3 2 1 2 2 3 2 2 3 2 2 3 3 3 3 3 3 3 3 2 2 2 2 2 1 1 1 2 3 3 3 3 2 2 1 1 2 2 2 2 3 3 3 3 3 3 3 3 4 5 6 7 7 7 7 8 8 9 9 9 9 9 9 9
10 10 10 9 8 7 6 7 8 8 8 7 6 6 5 6 6 6 5 6 6 6 5 6 5 4 2 2 1 1 1 1 0 1 2 3 3 2 2 2 1 1 1 1 1 2 3 2 2 2 2 2 2 2 3 2 3 2 2 2 2 2 1 1 1 1 2 3 3 2 2 2 2 2 2 3 3 3 3 3 3 3 3 3 3 3 3 4 6 7 7 7 7 7 7 7 8 8 9 9 9 9 9
10 11 11 10 8 7 7 7 8 7 7 7 7 7 7 7 7 7 6 6 6 5 5 5 6 6 4 2 1 1 1 1 1 1 1 2 3 3 2 1 1 1 1 2 1 1 3 2 2 2 2 2 2 2 2 2 2 2 2 2 2 2 2 2 2 2 3 2 2 1 2 2 2 2 3 3 3 3 3 3 3 3 3 3 3 2 2 3 5 6 6 6 6 6 6 6 7 7 7 8 8 9 9
11 11 11 10 9 8 8 8 8 7 7 6 6 7 8 9 9 8 8 8 8 7 6 5 6 7 6 4 3 2 0 0 1 1 1 0 2 3 4 2 1 2 2 1 1 2 3 2 1 2 3 3 2 2 2 2 2 2 2 2 2 2 2 2 1 2 2 1 1 1 1 1 2 3 3 3 3 3 3 3 3 3 3 3 3 3 3 4 5 5 4 4 5 5 5 5 5 5 6 6 7 8 8
11 11 10 10 10 10 9 9 8 7 7 6 6 6 7 8 8 8 9 9 9 9 9 7 6 6 6 6 5 3 1 0 0 1 1 1 1 1 3 3 3 2 1 0 2 3 2 1 0 1 2 2 2 1 2 2 2 2 2 2 2 2 2 1 1 1 1 1 1 1 1 1 2 3 3 3 3 3 3 3 3 3 3 3 3 3 3 3 3 3 3 3 4 5 5 5 5 5 5 5 6 7 8
11 11 10 11 11 11 10 9 9 8 7 6 6 6 6 6 6 6 7 7 8 8 7 7 6 5 4 5 5 5 3 2 1 1 1 1 2 2 1 2 3 3 3 3 2 2 1 1 1 1 2 2 1 0 1 2 2 2 2 2 2 2 2 2 1 1 1 1 1 1 1 1 2 2 2 3 3 3 3 3 3 3 3 3 3 3 3 3 3 2 2 2 2 3 6 6 6 6 6 7 7 8 8
10 10 11 11 11 12 12 10 9 9 8 7 6 5 5 5 5 6 7 8 8 7 6 6 6 5 4 4 5 5 4 4 2 1 0 1 2 2 2 2 2 2 2 2 2 3 2 1 2 2 1 2 2 1 1 2 3 3 2 2 2 2 2 2 2 1 1 1 1 1 1 2 2 2 2 2 2 2 3 3 3 3 3 3 3 3 3 3 4 4 3 3 4 6 10 9 9 9 8 9 9 9 9
11 10 11 10 11 12 12 11 10 9 8 8 6 5 5 6 6 7 6 7 7 6 5 5 5 5 5 4 5 5 5 5 4 3 2 1 1 1 1 2 3 3 3 2 2 2 3 2 2 2 2 1 1 3 2 2 2 2 3 3 3 3 2 2 2 1 1 1 1 1 1 1 1 1 1 2 2 2 2 2 3 3 3 2 2 3 4 5 6 6 7 8 9 10 11 10 10 10 10 10 10 10 11
11 10 10 10 11 11 11 11 10 9 8 7 6 5 6 6 6 5 5 5 5 4 3 3 3 4 4 5 5 5 5 5 5 4 3 2 1 1 0 2 3 4 5 4 3 2 3 3 3 3 3 3 1 1 2 2 2 2 2 3 3 3 2 2 1 1 1 1 1 1 1 1 1 1 1 1 1 1 2 2 2 2 2 2 2 3 4 4 5 6 7 8 9 11 11 11 11 11 11 11 11 11 12
11 10 9 9 10 11 10 10 9 9 8 8 7 6 5 5 5 5 5 5 5 4 3 2 2 2 2 3 4 5 5 5 5 4 3 3 2 1 0 2 3 4 5 4 4 3 4 3 2 3 3 4 3 2 1 2 2 3 2 2 2 3 3 2 2 2 2 2 1 0 1 1 0 1 1 1 1 1 1 2 2 2 2 2 2 2 3 3 4 4 4 5 8 10 11 11 11 11 11 12 12 13 13
Wind_Direction
134 130 128 127 126 124 123 121 118 116 113 111 109 108 108 107 106 105 104 104 104 104 105 104 103 101 99 96 94 92 89 87 83 79 76 72 69 66 64 64 65 70 77 86 94 98 98 92 86 78 72 64 58 51 48 37 24 10 1 344 327 312 302 293 288 287 51 97 103 102 97 294 259 233 167 114 79 52 33 22 6 348 332 344 355 350 332 328 328 333 343 356 20 47 56 47 31 14 352 349 12 48 65
135 133 132 131 130 128 125 122 119 117 114 112 111 110 110 110 110 109 108 108 108 107 107 106 105 103 101 99 96 92 89 84 80 76 73 71 69 68 67 69 73 80 87 95 100 101 99 95 88 80 73 65 56 48 43 29 16 1 347 328 308 296 290 289 292 302 29 88 99 103 106 243 255 230 95 76 65 53 43 30 15 1 5 38 30 6 345 355 5 9 6 357 12 51 75 73 59 30 352 7 27 43 49
136 136 136 135 133 131 128 125 122 119 117 115 114 114 114 114 114 114 113 112 111 110 108 107 105 104 101 98 94 90 85 81 77 74 71 71 70 70 71 75 80 87 94 99 101 101 100 96 90 83 76 66 56 47 39 22 2 343 330 310 296 289 285 289 303 343 42 86 99 107 117 185 226 79 74 71 68 62 56 43 22 4 31 75 80 68 23 62 64 57 33 355 1 52 92 95 100 102 88 46 44 45 43
138 138 138 138 136 134 131 129 126 124 122 120 119 119 119 119 119 118 117 115 113 111 109 106 103 99 96 92 88 84 80 77 75 73 72 72 72 73 74 80 85 90 95 99 100 100 97 91 88 84 81 72 62 51 40 14 341 320 308 298 297 291 279 293 336 28 50 85 102 113 126 163 87 67 71 76 79 83 85 90 82 13 43 88 113 136 132 121 120 119 108 55 26 36 49 50 51 54 61 57 53 48 43
140 141 140 139 138 136 135 133 132 130 129 126 124 123 122 122 122 122 120 117 114 111 107 103 98 94 90 87 84 81 78 77 75 74 73 73 74 76 79 84 89 92 95 96 96 96 92 86 83 83 82 82 79 70 48 359 323 313 304 298 300 304 319 359 31 45 51 72 89 100 106 88 67 65 72 82 93 105 120 138 132 70 48 62 74 82 83 91 94 91 83 66 49 40 35 29 27 33 52 58 56 51 45
142 142 140 139 138 138 137 137 136 134 133 131 129 127 126 126 126 125 123 120 115 110 104 98 93 89 86 84 82 80 78 76 74 74 73 74 76 79 84 89 92 93 93 92 92 90 87 77 72 70 65 68 73 73 51 2 342 331 314 307 310 324 6 41 49 51 53 61 68 74 76 65 61 62 67 77 92 110 133 127 92 59 49 47 45 44 42 44 48 53 56 58 53 46 38 30 24 24 42 53 56 53 48
143 142 139 137 137 138 139 139 138 136 134 133 132 132 132 131 131 130 127 123 117 109 101 93 88 85 82 81 79 78 76 74 74 73 73 75 78 83 89 93 94 93 92 90 88 86 83 77 72 66 52 42 35 27 11 360 355 348 329 321 335 354 22 46 56 58 59 57 58 59 60 58 57 56 56 58 62 68 73 66 59 54 52 50 46 43 41 41 44 49 58 62 59 54 46 36 28 25 34 48 53 52 50
145 142 138 136 136 137 138 138 137 136 135 137 138 138 138 138 136 133 128 120 112 105 97 90 86 83 80 78 75 73 71 71 71 71 72 75 82 88 94 95 95 93 91 88 86 84 81 78 74 68 52 42 30 19 2 357 353 346 333 327 333 347 15 50 64 69 68 65 62 60 59 58 57 56 54 53 54 55 56 55 54 55 56 57 55 53 50 49 50 54 60 67 67 63 56 46 38 33 35 43 47 48 46
147 144 140 138 138 139 140 139 139 138 139 142 143 143 142 140 136 130 122 114 107 100 94 89 85 81 78 74 71 68 67 66 67 68 70 77 86 94 100 99 96 93 90 87 85 82 78 75 69 62 48 39 28 18 6 358 346 338 329 323 323 331 6 55 74 79 77 74 70 66 63 60 59 57 56 54 53 52 52 53 55 57 60 63 65 64 63 61 60 60 61 65 67 66 63 54 47 41 40 43 44 44 43
149 147 144 143 142 143 143 143 143 144 145 147 146 143 140 135 130 122 114 106 101 97 93 88 84 80 75 71 67 64 62 62 63 66 70 80 91 99 105 102 98 94 89 86 83 79 75 71 64 56 44 36 25 15 6 353 339 330 324 315 322 341 9 58 78 83 83 78 73 69 65 62 59 57 56 55 54 54 54 54 56 60 63 67 72 75 73 73 71 65 58 58 58 57 56 53 49 46 45 45 45 45 44
152 150 149 148 149 150 151 150 150 149 149 148 145 141 135 130 122 114 106 102 99 96 92 87 82 78 73 69 66 63 61 60 61 65 72 84 95 103 107 104 100 95 89 85 81 76 72 68 61 52 40 33 23 12 1 345 333 325 316 314 331 358 23 60 77 81 81 77 74 70 66 63 60 58 57 57 57 58 58 58 60 62 64 66 67 66 62 62 61 59 56 55 54 53 52 51 49 48 48 47 47 47 46
154 153 152 152 154 157 158 155 154 152 150 146 141 135 129 122 114 108 102 101 98 95 91 86 81 76 72 69 66 63 60 60 63 68 77 88 98 104 106 103 99 94 88 82 77 72 67 62 55 46 36 28 19 9 355 343 332 321 306 329 351 12 37 63 75 79 79 77 74 71 67 64 61 59 59 60 61 63 64 65 65 65 64 62 60 56 50 49 50 52 54 56 55 52 51 50 50 49 49 49 49 48 48
153 153 152 153 156 160 160 157 153 150 146 140 135 129 122 115 109 105 103 102 100 96 91 86 81 77 73 70 67 65 62 63 68 75 83 92 98 102 103 99 95 90 85 79 73 66 56 53 48 42 33 25 16 5 352 345 334 320 302 2 22 31 46 65 74 78 79 78 77 74 71 66 63 60 60 63 66 68 70 72 72 70 66 61 58 54 52 49 48 50 54 56 57 56 54 53 52 51 50 50 49 49 48
148 147 144 146 150 153 153 152 149 146 141 135 128 122 118 113 110 109 108 106 103 98 93 87 83 80 77 74 71 68 66 67 73 81 88 94 97 99 98 94 90 86 81 75 67 56 49 48 46 41 31 23 13 4 357 353 337 326 330 29 40 44 52 63 71 75 77 78 78 76 73 68 63 59 59 62 66 68 70 74 75 73 69 64 60 57 56 53 51 52 55 58 60 59 57 54 52 51 50 49 49 47 46
139 135 133 137 141 143 142 144 144 142 136 126 116 110 112 114 114 113 112 109 105 100 94 90 87 84 82 79 75 72 69 72 78 86 92 96 97 97 95 91 87 83 78 70 60 50 50 47 46 42 32 24 15 6 1 356 339 341 28 44 49 52 55 62 68 73 75 76 77 77 75 70 65 60 59 62 65 69 70 73 75 74 72 67 64 61 58 56 54 54 56 58 59 60 58 54 51 49 48 47 46 45 44
130 129 132 135 135 135 136 141 142 139 132 118 104 96 103 112 115 116 114 111 106 101 96 93 90 88 87 85 81 76 71 74 80 87 93 96 97 97 94 90 86 82 77 68 57 51 51 49 46 42 34 26 18 10 6 354 343 2 43 50 53 56 58 62 66 70 72 74 76 76 76 73 68 64 60 62 65 68 70 71 72 72 71 69 66 62 59 56 54 54 54 55 56 56 56 53 50 47 44 43 43 42 41
130 133 139 139 138 137 139 142 143 139 130 117 102 91 95 105 110 113 112 109 105 101 97 94 92 91 91 89 86 82 73 72 78 85 91 95 96 95 92 88 84 79 71 65 56 50 50 50 47 42 35 28 20 11 6 350 355 21 47 52 56 58 60 62 65 68 70 73 75 76 77 75 72 68 64 63 63 64 65 66 67 67 68 66 64 62 59 55 53 50 49 49 49 51 51 50 48 45 41 40 39 39 39
138 143 147 145 144 144 145 148 146 142 134 121 110 99 96 100 104 108 109 107 102 98 95 92 92 92 93 91 88 85 79 72 72 76 83 90 91 90 88 84 80 74 64 61 54 49 49 50 48 43 38 30 21 11 4 353 13 35 49 54 58 61 63 64 65 67 68 70 72 74 75 75 74 72 68 64 62 60 60 62 63 64 64 63 62 60 57 54 50 47 44 42 42 43 45 45 45 43 39 37 36 36 37
147 152 152 152 152 153 155 156 154 149 140 127 116 106 101 102 104 106 108 104 99 94 90 90 90 90 92 90 87 83 80 78 74 71 70 78 81 82 82 78 73 67 61 58 54 50 50 50 48 44 41 31 20 11 6 5 23 38 49 55 59 63 66 67 68 68 68 69 71 72 73 73 73 72 69 65 61 59 57 59 60 61 61 60 59 58 55 52 48 44 41 37 35 35 37 38 39 39 37 35 34 34 35
148 154 156 156 157 159 161 162 160 154 141 123 110 100 101 104 106 106 107 100 93 89 86 86 87 87 88 87 83 79 78 79 78 75 70 68 70 72 74 74 71 67 62 57 55 54 52 52 49 45 40 31 21 13 7 13 27 38 48 54 60 64 67 69 71 71 71 72 72 72 72 71 71 69 68 64 60 57 55 55 56 57 57 56 55 54 53 50 47 43 38 33 30 29 29 30 31 33 34 33 32 32 32
130 136 142 147 151 152 151 150 150 141 123 106 92 78 73 83 93 98 99 91 86 84 83 83 83 83 85 84 82 79 78 80 80 78 74 69 67 68 69 70 71 70 61 58 58 58 54 52 50 46 40 32 23 16 9 18 28 37 47 54 60 65 68 71 73 74 75 75 74 73 72 70 68 66 64 61 58 55 52 51 51 52 52 51 49 48 48 48 46 43 38 33 28 25 23 23 24 25 28 29 29 30 30
110 98 83 73 75 80 80 72 75 78 77 85 82 74 61 63 74 82 84 82 81 80 79 79 79 79 83 85 85 83 80 85 86 85 79 73 70 70 70 68 70 70 63 61 59 58 53 50 49 45 41 33 24 18 14 26 32 36 44 53 60 65 69 72 74 75 75 75 74 73 72 69 66 63 61 58 55 52 49 46 44 44 45 46 43 41 41 42 42 41 39 35 30 25 21 19 19 20 23 24 26 27 29
114 110 95 77 66 62 60 64 67 68 65 76 82 84 72 70 75 80 83 85 83 79 77 77 75 74 79 85 87 86 84 90 98 100 96 85 79 76 73 70 68 68 65 62 60 56 51 49 47 46 42 33 25 21 19 31 35 37 42 51 59 66 70 73 74 75 74 73 72 70 69 67 65 61 58 55 52 48 45 42 38 37 37 40 38 36 33 34 36 38 38 36 32 27 22 19 18 18 20 23 25 26 27
127 128 121 107 92 80 74 81 85 85 80 87 95 98 85 77 82 87 91 90 87 83 81 81 79 77 77 82 84 85 83 85 94 104 110 104 95 85 79 73 69 67 66 63 60 56 52 49 47 46 42 32 27 23 20 34 38 40 41 48 57 65 71 73 75 75 74 72 70 68 66 64 62 59 55 52 49 45 43 39 35 31 31 33 34 32 29 28 30 32 35 34 31 28 24 21 19 19 21 23 25 26 27
141 141 141 129 117 105 92 97 103 103 98 102 108 109 103 89 88 93 99 97 94 90 87 87 87 87 86 85 83 81 81 80 82 87 100 109 106 98 87 79 74 71 69 66 62 57 53 47 46 45 42 33 28 25 22 37 42 44 43 48 54 62 69 74 75 74 73 71 69 66 63 61 58 55 53 50 46 43 40 38 35 31 29 30 32 31 28 26 28 30 32 31 29 27 24 22 21 22 23 25 26 27 28
152 154 155 140 130 119 108 105 105 105 105 109 114 115 113 104 95 95 103 104 103 99 97 95 92 90 91 92 87 82 80 81 79 77 77 96 105 104 95 86 79 74 71 69 65 60 54 48 45 44 42 35 32 28 23 39 46 48 47 49 54 59 66 71 73 74 73 71 68 65 62 59 56 53 51 48 46 43 40 39 37 33 31 31 32 32 29 28 28 30 32 31 28 26 24 23 23 24 26 27 28 28 29
160 163 161 145 134 127 120 114 109 106 114 110 111 115 120 113 105 98 103 107 108 107 105 103 97 92 92 94 92 87 81 80 78 75 71 77 93 103 103 95 85 77 74 73 68 62 55 51 47 43 40 38 36 32 23 45 50 52 52 52 55 58 62 66 69 71 72 70 67 64 62 58 55 53 51 49 47 45 42 41 39 37 36 36 35 34 31 31 31 32 33 31 29 26 24 23 24 25 27 29 29 29 28
169 174 161 150 142 138 139 134 124 120 126 117 108 112 123 120 115 108 108 113 114 114 113 110 106 103 99 97 95 92 85 80 76 72 69 67 76 93 106 102 94 83 79 77 72 65 56 52 48 45 39 40 40 36 25 44 51 54 56 56 57 59 60 62 64 65 67 67 65 63 61 58 56 54 52 51 50 48 47 45 43 41 41 41 41 39 36 35 35 35 35 32 29 26 24 24 24 25 27 28 29 29 28
180 182 164 159 155 154 157 150 141 135 137 131 123 118 126 127 124 120 115 120 120 119 119 116 112 107 105 102 99 96 93 89 79 71 64 62 60 71 97 104 102 94 84 81 78 75 64 56 52 49 46 43 41 37 33 41 53 58 61 61 61 61 61 61 61 62 62 62 62 60 58 57 55 54 53 53 52 51 50 48 46 44 44 45 44 42 39 37 36 36 36 34 30 27 25 25 25 26 27 28 28 28 27
189 186 169 166 164 164 166 161 153 146 144 138 136 136 138 132 129 129 129 126 122 118 116 113 107 102 103 102 100 99 103 100 90 77 65 59 53 55 76 98 102 97 86 84 82 80 76 67 59 54 53 47 43 41 40 39 53 61 65 64 64 63 63 62 61 60 59 59 59 58 57 56 55 54 54 54 54 53 52 49 47 46 45 47 46 45 41 38 37 37 37 34 31 29 28 27 27 27 28 28 28 27 26
189 185 174 168 170 172 170 162 155 150 146 144 142 142 145 133 130 131 137 135 130 125 121 119 117 113 108 101 100 102 107 103 97 88 72 63 55 51 59 85 95 96 87 83 75 68 68 72 67 59 52 47 47 47 46 42 52 60 68 67 67 66 65 63 62 60 59 59 58 57 56 55 55 54 54 55 55 54 53 50 49 47 47 47 47 45 42 39 37 37 36 34 32 31 31 31 30 29 29 28 27 26 25
186 182 177 173 177 179 169 159 154 151 149 144 138 133 129 121 119 121 125 130 135 139 140 138 136 131 122 107 99 96 94 99 99 93 80 68 57 50 50 69 83 90 87 77 68 56 45 60 64 61 51 51 52 52 49 46 46 55 66 70 70 69 67 65 63 61 60 59 58 57 57 57 56 56 56 56 56 55 54 52 50 48 47 46 46 45 41 37 35 35 35 34 32 33 34 34 34 32 31 29 28 26 25
184 182 184 182 182 178 163 161 160 157 150 139 130 123 114 107 105 105 101 94 94 104 118 127 131 130 124 112 102 85 67 85 97 98 85 71 58 49 41 57 69 75 70 78 74 61 38 56 64 63 55 59 57 53 49 49 46 49 58 68 71 72 71 68 66 64 61 60 60 59 58 58 58 58 58 58 57 55 54 52 51 49 47 45 45 43 41 37 34 33 33 32 33 35 38 38 37 35 33 31 28 26 25
185 186 187 186 182 175 164 169 166 158 146 136 128 122 118 108 102 99 99 90 75 62 65 84 98 107 111 110 103 88 67 66 85 97 93 74 57 45 44 59 63 62 62 79 82 70 43 59 67 69 60 64 61 55 50 50 48 47 49 62 69 73 73 71 69 67 64 63 62 61 60 59 59 59 59 59 57 56 53 52 50 48 46 45 43 42 40 37 34 32 31 31 33 36 40 42 41 38 34 31 29 27 27
184 186 186 186 181 175 170 172 164 151 143 132 125 123 122 116 110 106 104 102 92 78 64 73 83 93 99 102 98 90 76 69 75 84 91 79 61 43 50 58 59 60 69 78 79 73 58 65 68 70 68 70 64 58 50 48 48 48 48 55 61 67 71 71 71 70 68 66 64 62 61 60 60 59 59 58 56 55 52 50 48 47 45 44 42 40 38 36 33 31 29 31 32 35 42 44 43 39 35 32 30 28 29
184 185 185 184 181 178 174 169 156 146 140 131 124 122 121 120 119 117 114 111 106 100 90 88 93 99 100 98 95 92 89 85 80 76 75 75 67 53 58 54 51 58 79 80 77 68 72 72 68 65 70 72 66 55 46 42 44 48 51 48 52 56 59 64 65 66 68 67 66 63 61 60 60 59 57 56 54 53 50 47 45 44 43 42 40 38 36 33 31 29 28 28 29 34 41 44 44 41 36 33 31 30 31
185 185 184 183 180 176 172 163 152 143 139 133 130 128 127 127 128 129 125 121 121 121 119 102 94 94 96 98 97 95 93 91 87 80 67 63 58 56 57 50 47 54 77 80 77 76 84 79 64 50 61 59 56 48 37 34 38 44 47 45 46 48 47 45 48 53 60 65 65 64 62 60 59 58 57 55 53 50 48 45 43 41 40 39 37 35 33 31 28 26 24 24 25 30 38 43 44 43 38 36 33 33 35
185 184 184 181 177 171 168 160 150 144 140 138 139 139 137 136 136 136 132 131 133 133 125 103 87 77 76 87 91 89 76 86 94 95 83 63 52 49 45 39 43 55 68 56 58 70 91 79 47 28 30 35 42 39 22 30 35 38 35 41 42 43 45 43 35 31 35 50 58 62 63 60 59 57 56 54 51 49 46 43 40 38 37 36 35 33 30 28 25 22 20 19 19 23 31 39 43 44 41 38 37 37 38
186 181 182 178 174 170 165 155 149 147 143 144 147 148 143 138 138 137 134 136 138 136 126 115 97 77 65 74 77 73 56 70 89 102 102 81 64 49 27 24 34 49 61 54 54 62 80 62 33 21 23 29 31 29 22 35 35 31 27 33 35 37 41 43 38 29 18 25 42 54 62 60 58 56 55 53 50 47 44 41 38 35 34 33 32 31 28 26 23 20 17 15 14 17 22 31 38 43 43 42 42 41 41
188 181 179 177 174 169 155 148 148 149 147 148 150 150 144 140 141 141 138 136 132 126 119 125 116 99 79 80 78 69 48 55 76 91 89 82 71 51 12 16 27 39 49 64 69 68 58 44 30 22 20 15 13 19 37 40 36 29 24 26 27 26 30 37 35 23 10 7 19 36 51 55 54 53 52 51 48 45 42 38 34 31 30 30 29 28 26 24 21 18 15 12 10 11 13 20 28 35 40 43 45 47 44
189 183 180 177 171 161 149 151 153 153 151 151 152 152 150 148 149 150 145 137 126 104 66 100 118 123 122 109 95 84 59 46 61 78 80 74 66 47 12 16 24 33 38 59 69 69 55 40 25 14 9 359 8 27 43 37 33 30 24 23 20 17 18 28 27 17 4 3 2 8 18 37 42 43 45 45 45 43 40 35 30 26 24 24 25 25 24 21 19 16 14 10 8 7 7 11 17 23 30 37 44 48 46
187 183 179 173 164 157 154 158 159 158 154 154 156 158 158 159 158 156 151 144 132 106 56 47 85 123 135 132 118 104 92 57 51 63 79 73 64 47 26 26 28 30 33 49 58 60 53 41 27 14 5 7 23 36 39 32 29 30 29 23 18 16 19 27 26 20 11 9 8 6 5 19 24 27 29 30 32 33 32 28 23 18 15 16 17 19 20 17 15 12 10 8 5 4 3 6 9 13 18 23 32 40 45
186 182 177 168 162 159 160 162 162 159 155 156 159 161 163 163 160 155 154 146 136 117 78 47 55 94 123 128 127 121 112 88 60 52 74 78 68 53 41 36 32 27 25 41 46 47 40 39 37 42 50 44 42 37 28 27 29 31 30 24 21 21 25 29 31 30 28 28 27 21 14 16 17 17 17 16 17 17 16 13 9 5 3 4 6 9 12 11 9 7 5 4 3 1 1 2 3 5 6 8 13 21 27
184 180 173 165 161 161 165 165 163 159 155 158 160 161 161 156 153 150 153 145 136 125 99 58 48 71 109 124 133 135 128 122 108 83 75 79 75 64 50 42 32 24 22 36 41 39 36 37 41 47 57 57 52 40 22 26 30 33 32 28 28 30 33 35 38 41 42 44 45 44 41 32 23 18 16 14 12 9 5 360 356 352 350 351 353 357 1 2 1 359 358 358 358 357 357 358 358 358 357 354 354 353 353
181 176 169 162 161 164 170 168 163 158 155 156 157 156 152 148 148 150 151 144 135 128 120 88 59 58 77 106 124 133 131 135 132 119 94 81 76 70 60 46 32 25 27 35 35 35 37 43 46 48 49 52 52 46 28 32 38 44 41 38 39 42 44 43 45 47 48 50 54 56 55 50 40 28 20 17 13 8 1 355 351 349 346 345 345 345 347 349 350 350 350 350 351 352 352 353 353 352 350 345 341 338 333
178 172 168 163 164 168 172 169 163 156 155 154 155 154 152 152 154 155 152 145 135 128 127 118 93 68 62 71 82 96 104 123 124 113 93 84 77 71 64 50 36 30 35 30 27 29 38 47 48 46 45 46 46 46 35 42 63 79 62 51 48 50 51 48 46 46 45 48 55 59 59 54 46 37 28 22 16 7 357 353 352 352 350 347 344 341 338 339 339 339 339 340 342 343 345 345 345 345 343 338 335 330 326
175 171 169 168 168 169 170 168 163 157 156 157 159 160 162 164 165 164 160 151 142 136 135 130 120 97 70 63 63 67 75 95 109 105 91 77 71 68 67 54 40 33 40 29 24 25 38 45 46 44 40 37 36 35 27 25 56 81 80 73 62 55 54 47 43 40 34 38 48 55 57 53 46 38 30 25 17 6 355 353 354 355 355 353 350 345 339 336 333 330 330 330 332 334 335 337 337 337 335 332 329 326 323
176 173 170 168 167 167 168 168 165 161 162 164 169 172 175 175 174 172 167 158 150 143 138 131 126 117 94 67 52 43 46 43 100 113 105 79 60 51 55 48 31 20 28 27 25 29 39 47 48 43 33 27 23 19 16 17 45 74 91 89 75 60 54 50 44 36 26 38 50 54 54 52 46 38 30 23 14 5 358 353 354 356 358 357 354 351 347 342 337 330 325 322 322 324 325 327 328 328 328 326 325 323 322
175 172 165 164 165 166 169 171 170 168 170 174 179 181 179 175 173 170 163 151 142 134 120 110 111 115 116 102 59 12 4 344 357 103 97 89 68 33 8 15 12 4 358 15 26 32 36 47 49 44 34 24 18 13 11 23 44 68 91 91 83 72 62 58 50 38 30 47 53 55 53 49 43 37 29 19 11 5 358 354 353 354 355 355 355 353 351 347 341 334 326 320 317 316 317 318 319 320 320 320 320 320 319
174 170 163 164 167 169 171 175 175 175 178 181 182 179 172 168 163 157 146 139 133 125 108 83 75 97 119 119 123 288 309 283 72 85 76 86 100 106 34 4 358 353 342 346 5 33 40 46 49 47 36 26 21 17 17 33 48 64 78 88 90 86 75 67 55 39 38 50 52 52 50 45 41 35 27 15 8 3 356 352 351 349 348 349 350 351 350 347 342 335 329 321 316 313 312 313 313 313 314 314 315 316 316
175 169 166 167 171 174 174 177 177 178 179 178 169 158 153 154 152 148 143 143 143 140 129 111 80 66 95 113 133 181 258 264 182 107 94 99 123 138 143 122 24 360 345 338 340 3 39 39 43 43 34 25 23 23 21 38 52 59 59 76 86 89 82 69 53 41 50 52 49 45 43 39 33 26 15 6 5 3 358 355 351 346 343 342 341 342 342 338 335 332 329 324 319 315 313 310 309 308 309 309 310 312 313
177 172 168 169 173 176 174 176 177 176 172 165 154 146 149 152 154 154 154 156 158 157 150 139 124 93 61 91 101 121 261 275 251 122 121 129 125 102 110 103 87 18 345 341 335 338 4 5 8 16 27 17 16 16 12 32 48 52 40 49 60 70 68 52 36 38 55 53 47 39 33 28 21 12 6 9 9 6 2 357 352 345 342 336 333 331 330 328 329 332 333 331 327 323 319 313 309 306 305 306 307 309 310
177 174 171 172 173 174 170 176 177 176 169 164 160 158 160 161 162 164 165 165 166 165 157 145 137 126 89 81 76 59 324 323 346 79 118 133 123 81 38 68 100 160 159 122 303 304 306 326 334 341 1 8 7 2 355 22 40 45 33 31 29 21 10 6 4 23 55 51 42 29 20 13 5 5 10 12 10 4 360 356 351 345 339 334 331 328 326 327 334 339 343 340 335 329 326 319 312 307 303 304 305 307 309
177 175 174 172 171 170 170 176 178 177 174 170 167 165 167 170 171 170 171 172 172 169 161 149 140 133 126 118 110 101 329 359 14 39 107 136 133 124 95 89 117 168 193 125 139 237 260 266 290 306 306 343 354 349 351 18 21 18 19 25 13 357 351 350 1 32 58 55 42 20 12 3 356 1 13 13 8 2 359 354 348 344 340 336 332 330 327 330 341 347 347 343 341 337 329 323 316 310 305 304 305 307 310
177 176 175 172 170 170 173 175 176 177 179 174 170 168 169 174 176 178 178 178 176 171 163 158 150 145 139 144 144 142 160 341 12 39 48 99 135 136 138 129 95 47 14 38 155 209 233 249 280 297 293 332 354 360 350 2 360 357 11 24 15 1 354 352 16 50 63 56 29 10 13 359 357 1 10 8 5 3 1 355 351 348 346 343 342 342 342 345 348 347 338 332 330 328 324 323 321 317 313 309 310 313 315
176 176 176 172 170 170 172 174 175 177 179 179 177 176 176 179 181 180 179 178 175 171 165 163 163 161 148 148 149 148 135 100 7 49 63 16 5 74 138 140 138 132 88 267 242 233 235 215 42 359 294 334 5 18 331 333 339 345 354 10 11 4 353 350 22 61 69 34 7 2 6 10 11 10 6 6 6 6 3 2 1 359 357 357 356 353 351 348 342 333 324 316 314 316 323 340 345 342 336 330 327 326 326
176 177 178 174 172 170 169 173 176 178 180 183 183 182 179 177 176 176 176 176 178 178 174 165 164 162 147 141 140 140 129 123 99 66 72 56 31 28 88 136 155 164 169 182 195 208 243 134 107 105 280 314 340 15 297 316 322 329 336 346 350 352 346 342 357 24 47 33 23 14 7 22 19 12 3 10 11 11 9 10 9 7 8 9 7 3 360 353 347 337 319 313 317 339 2 12 10 3 357 348 343 339 336
177 178 179 176 173 172 172 175 178 180 184 186 185 179 173 170 171 174 177 179 182 183 177 162 156 154 147 135 129 126 127 134 139 138 106 85 66 62 75 107 125 137 145 156 155 152 147 98 113 142 196 330 326 320 358 341 337 335 336 338 343 348 348 349 353 1 15 26 28 27 28 26 16 5 4 14 16 16 14 14 12 11 14 14 11 9 9 6 5 3 359 13 22 24 22 18 14 8 0 354 349 343 338
178 178 177 176 175 176 177 177 179 181 184 185 181 174 172 176 178 178 177 179 178 173 165 160 156 154 152 142 130 125 136 148 153 156 153 102 46 45 81 97 91 81 71 66 99 134 139 141 153 155 127 95 317 315 336 352 349 336 328 330 337 346 352 352 353 355 1 5 15 33 45 29 5 357 15 21 21 19 19 14 12 12 15 14 12 12 15 17 14 13 16 30 35 32 23 17 11 5 358 353 347 341 336
176 176 175 175 177 179 180 178 179 181 182 180 177 175 178 180 178 173 165 158 150 143 142 148 151 151 153 151 144 139 147 157 162 158 141 126 95 342 355 89 86 82 78 66 62 77 103 133 147 150 139 145 163 274 312 319 325 326 317 323 331 339 348 342 335 332 334 322 332 49 65 39 359 350 16 25 27 24 18 13 10 10 11 9 10 12 15 14 11 10 9 19 26 28 20 15 9 2 356 350 344 339 333
176 175 175 177 179 180 181 178 179 182 182 180 179 178 179 173 165 155 144 132 122 116 109 107 115 135 157 154 147 144 144 153 163 166 150 137 143 167 144 81 84 85 82 72 67 67 74 77 104 132 137 138 137 142 204 299 321 332 326 325 332 341 342 330 320 307 294 284 275 124 89 70 10 337 359 28 35 28 22 17 11 6 5 6 8 9 12 10 8 5 1 11 21 24 19 13 6 360 353 347 341 336 331